Le nostre stazioni meteo in Italia

Pubblicità
Il mio iltempo24.it
Lyon/Satolas, Francia (7481): Temperatura & dewpoint: 09.09.2019 21:00:00 - 15.09.2019 21:00:00 (CEST)Lyon/Satolas, Francia (7481): Temperatura 5cm: 09.09.2019 21:00:00 - 15.09.2019 21:00:00 (CEST)Lyon/Satolas, Francia (7481): Temperatura -20cm & Temperatura -100cm: 09.09.2019 21:00:00 - 15.09.2019 21:00:00 (CEST)Lyon/Satolas, Francia (7481): velocità del vento & gusts: 09.09.2019 21:00:00 - 15.09.2019 21:00:00 (CEST)Lyon/Satolas, Francia (7481): direzione del vento: 09.09.2019 21:00:00 - 15.09.2019 21:00:00 (CEST)Lyon/Satolas, Francia (7481): reduced air pressure: 09.09.2019 21:00:00 - 15.09.2019 21:00:00 (CEST)Lyon/Satolas, Francia (7481): visibility: 09.09.2019 21:00:00 - 15.09.2019 21:00:00 (CEST)Lyon/Satolas, Francia (7481): precipitazioni: 09.09.2019 21:00:00 - 15.09.2019 21:00:00 (CEST)
Data & Tempo tt [°C] td [°C] tt 5cm [°C] tt -20cm [°C] tt -100cm [°C] ff [km/h] ff [kn] fx [km/h] fx [kn] dd ppp [hPa] vv [km] rr [mm]
15.09.2019 21:00:00 26,7 13,8 23,9 26,3 21,3 6 3 10 5 E 1020,3 50 0,0
15.09.2019 20:00:00 28,2 12,5 25,3 26,3 21,3 5 3 10 5 ENE 1019,7 50 0,0
15.09.2019 19:00:00 30,6 12,9 32,6 26,1 21,3 3 2 14 7 OSO 1019,4 50 0,0
15.09.2019 18:00:00 31,7 11,5 34,5 25,8 21,3 6 4 20 11 OSO 1019,4 50 0,0
15.09.2019 17:00:00 31,7 12,0 37,2 25,3 21,3 13 7 23 13 OSO 1019,7 50 0,0
15.09.2019 16:00:00 31,9 12,2 36,9 24,7 21,3 10 5 23 12 OSO 1020,3 50 0,0
15.09.2019 15:00:00 31,8 13,5 36,7 24,0 21,3 8 5 25 13 SO 1021,2 50 0,0
15.09.2019 14:00:00 30,4 12,8 35,9 23,3 21,3 8 5 21 11 SSO 1022,3 50 0,0
15.09.2019 13:00:00 29,0 14,8 34,5 22,8 21,3 7 4 18 10 NO 1023,0 40 0,0
15.09.2019 12:00:00 27,0 14,7 32,1 22,4 21,3 5 3 17 9 NO 1023,8 40 0,0
15.09.2019 11:00:00 24,2 15,9 29,8 22,2 21,3 5 3 13 7 S 1024,3 40 0,0
15.09.2019 10:00:00 22,0 14,9 24,5 22,2 21,2 7 4 21 11 S 1024,7 40 0,0
15.09.2019 09:00:00 20,4 15,0 18,1 22,4 21,3 15 8 25 14 SE 1024,9 40 0,0
15.09.2019 08:00:00 17,8 14,9 13,3 22,6 21,2 13 7 19 10 SSE 1025,2 30 0,0
15.09.2019 07:00:00 15,9 14,4 13,4 22,9 21,3 4 2 18 10 NO 1025,1 8 0,0
15.09.2019 06:00:00 17,3 14,6 15,7 23,0 21,2 13 7 18 10 SE 1024,8 15 0,0
15.09.2019 05:00:00 18,6 14,9 17,4 23,3 21,2 12 7 17 9 SSE 1024,6 33 0,0
15.09.2019 04:00:00 18,5 15,4 17,5 23,5 21,2 11 6 18 10 ESE 1024,7 27 0,0
15.09.2019 03:00:00 19,6 15,0 18,1 23,8 21,2 11 6 14 8 SE 1024,8 35 0,0
15.09.2019 02:00:00 20,0 15,4 16,1 24,0 21,2 11 6 16 8 SSE 1025,2 31 0,0
15.09.2019 01:00:00 19,7 16,2 16,0 24,3 21,2 6 3 8 5 SSE 1025,0 21 0,0
15.09.2019 00:00:00 21,1 16,7 17,5 24,6 21,2 5 3 7 4 S 1025,1 38 0,0
14.09.2019 23:00:00 21,3 17,1 17,4 24,9 21,2 4 2 5 3 E 1025,3 40 0,0
14.09.2019 22:00:00 21,7 16,4 17,3 25,1 21,2 5 3 8 4 NNE 1025,2 43 0,0
14.09.2019 21:00:00 23,2 16,5 19,5 25,3 21,2 6 3 18 10 NNE 1024,9 49 0,0
14.09.2019 20:00:00 25,2 16,3 23,1 25,3 21,2 6 4 14 7 NE 1024,4 55 0,0
14.09.2019 19:00:00 27,5 15,5 28,9 25,2 21,2 8 4 15 8 N 1024,0 70 0,0
14.09.2019 18:00:00 28,2 14,8 31,2 24,9 21,2 6 4 15 8 N 1023,8 70 0,0
14.09.2019 17:00:00 28,4 15,3 33,1 24,4 21,2 8 4 15 8 NNO 1024,0 70 0,0
14.09.2019 16:00:00 28,4 15,3 35,4 23,8 21,2 8 4 18 10 NO 1024,6 50 0,0
14.09.2019 15:00:00 27,9 15,2 33,6 23,0 21,2 4 2 16 9 O 1025,5 50 0,0
14.09.2019 14:00:00 26,4 15,1 32,0 22,3 21,2 5 3 17 9 ONO 1026,1 43 0,0
14.09.2019 13:00:00 25,5 15,2 30,4 21,8 21,2 7 4 16 9 NNO 1026,8 50 0,0
14.09.2019 12:00:00 23,0 15,1 28,9 21,4 21,1 8 4 16 9 NNO 1027,6 50 0,0
14.09.2019 11:00:00 21,2 15,1 27,0 21,2 21,1 4 2 16 9 NO 1028,5 50 0,0
14.09.2019 10:00:00 19,0 14,5 24,5 21,3 21,2 4 2 14 8 NO 1029,0 50 0,0
14.09.2019 09:00:00 17,1 14,0 16,0 21,4 21,1 3 2 8 4 SE 1028,8 50 0,0
14.09.2019 08:00:00 15,3 13,5 11,5 21,6 21,1 3 2 7 4 N 1028,8 50 0,0
14.09.2019 07:00:00 15,4 13,2 11,7 21,8 21,1 5 3 10 5 NNE 1028,5 50 0,0
14.09.2019 06:00:00 15,7 13,2 11,7 22,1 21,1 0 0 7 4 N 1028,2 50 0,0
14.09.2019 05:00:00 16,2 13,5 12,2 22,4 21,1 3 1 9 5 NO 1028,0 50 0,0
14.09.2019 04:00:00 16,9 13,6 12,8 22,6 21,1 4 2 7 4 ONO 1027,9 50 0,0
14.09.2019 03:00:00 17,8 14,1 15,6 22,9 21,1 5 3 9 5 OSO 1028,1 50 0,0
14.09.2019 02:00:00 18,5 14,6 15,7 23,2 21,1 6 4 9 5 O 1028,0 60 0,0
14.09.2019 01:00:00 18,8 14,7 14,7 23,4 21,1 3 2 10 5 OSO 1027,9 60 0,0
14.09.2019 00:00:00 19,8 14,8 15,2 23,8 21,1 2 1 10 5 NO 1027,8 60 0,0
13.09.2019 23:00:00 20,9 14,8 15,9 24,1 21,1 7 4 13 7 N 1028,0 70 0,0
13.09.2019 22:00:00 21,3 14,5 16,2 24,3 21,1 4 2 7 4 NNO 1028,1 70 0,0
13.09.2019 21:00:00 22,7 15,0 18,1 24,5 21,1 5 3 21 11 N 1027,7 80 0,0
13.09.2019 20:00:00 24,7 15,1 22,4 24,5 21,1 11 6 17 9 N 1027,8 80 0,0
13.09.2019 19:00:00 26,6 14,7 29,6 24,3 21,1 12 7 24 13 N 1027,5 80 0,0
13.09.2019 18:00:00 27,3 14,0 30,7 23,9 21,1 16 9 27 14 N 1027,1 80 0,0
13.09.2019 17:00:00 27,5 13,1 33,7 23,4 21,1 13 7 25 13 N 1027,5 80 0,0
13.09.2019 16:00:00 27,6 13,2 34,1 22,6 21,1 14 7 26 14 NNO 1028,0 80 0,0
13.09.2019 15:00:00 26,9 12,2 32,4 21,9 21,1 10 6 27 15 NNO 1028,7 80 0,0
13.09.2019 14:00:00 25,9 11,6 32,3 21,2 21,1 10 5 20 11 ONO 1029,4 80 0,0
13.09.2019 13:00:00 23,7 11,7 29,5 20,6 21,1 8 4 22 12 ONO 1029,9 80 0,0
13.09.2019 12:00:00 21,9 11,6 26,4 20,1 21,1 6 3 16 9 O 1030,4 80 0,0
13.09.2019 11:00:00 19,8 11,6 25,3 20,0 21,1 5 3 13 7 ONO 1031,0 80 0,0
13.09.2019 10:00:00 17,4 11,2 23,5 20,0 21,1 3 2 11 6 N 1031,7 80 0,0
13.09.2019 09:00:00 15,5 10,7 13,4 20,1 21,1 3 2 9 5 NE 1031,5 80 0,0
13.09.2019 08:00:00 12,8 9,4 9,1 20,4 21,1 4 2 25 14 NNE 1031,6 80 0,0
13.09.2019 07:00:00 12,6 9,1 9,0 20,6 21,1 9 5 11 6 S 1031,9 60 0,0
13.09.2019 06:00:00 13,4 9,4 8,5 20,9 21,1 5 3 7 4 S 1031,3 60 0,0
13.09.2019 05:00:00 13,0 8,7 9,3 21,2 21,1 5 3 9 5 ESE 1031,1 60 0,0
13.09.2019 04:00:00 14,3 9,3 10,1 21,5 21,1 4 2 13 7 SSE 1031,0 60 0,0
13.09.2019 03:00:00 15,1 9,2 10,1 21,7 21,1 3 1 9 5 E 1030,7 60 0,0
13.09.2019 02:00:00 16,0 9,0 10,7 22,1 21,1 4 2 5 3 N 1030,7 60 0,0
13.09.2019 01:00:00 17,0 9,2 11,6 22,3 21,1 3 2 5 3 E 1030,6 60 0,0
13.09.2019 00:00:00 17,5 8,9 12,5 22,6 21,1 4 2 25 14 O 1030,7 60 0,0
12.09.2019 23:00:00 18,5 8,7 13,5 23,0 21,1 3 2 8 5 OSO 1030,6 60 0,0
12.09.2019 22:00:00 19,6 8,6 13,9 23,2 21,1 3 1 8 5 SO 1030,3 60 0,0
12.09.2019 21:00:00 21,2 8,8 18,9 23,4 21,1 5 3 12 7 N 1030,1 60 0,0
12.09.2019 20:00:00 22,9 8,6 21,4 23,4 21,1 11 6 23 13 N 1029,5 60 0,0
12.09.2019 19:00:00 25,3 6,0 28,3 23,2 21,1 16 8 30 16 NNO 1029,2 60 0,0
12.09.2019 18:00:00 26,3 4,7 29,7 22,9 21,1 14 7 28 15 NNO 1029,1 50 0,0
12.09.2019 17:00:00 26,1 3,3 32,1 22,4 21,1 16 8 34 19 N 1029,2 50 0,0
12.09.2019 16:00:00 25,8 6,4 31,6 21,8 21,1 19 10 36 19 NNO 1029,6 50 0,0
12.09.2019 15:00:00 25,4 7,5 31,7 21,0 21,1 20 11 36 19 N 1029,8 50 0,0
12.09.2019 14:00:00 24,8 7,4 31,1 20,4 21,2 16 9 33 18 N 1030,3 50 0,0
12.09.2019 13:00:00 23,2 8,1 29,7 19,8 21,1 15 8 29 16 N 1030,7 50 0,0
12.09.2019 12:00:00 20,6 9,5 25,9 19,4 21,1 11 6 20 11 N 1031,5 50 0,0
12.09.2019 11:00:00 17,9 9,3 24,7 19,2 21,1 10 6 23 12 N 1031,5 39 0,0
12.09.2019 10:00:00 15,6 8,6 21,6 19,2 21,2 6 3 14 8 ONO 1031,6 50 0,0
12.09.2019 09:00:00 13,6 8,8 12,2 19,4 21,2 4 2 8 5 NNE 1030,7 50 0,0
12.09.2019 08:00:00 11,0 8,0 8,6 19,6 21,1 4 2 12 7 NNO 1030,6 50 0,0
12.09.2019 07:00:00 10,6 8,0 6,4 19,9 21,2 3 2 5 3 NNE 1030,3 50 0,0
12.09.2019 06:00:00 11,1 7,8 6,9 20,1 21,2 0 0 5 3 N 1029,8 50 0,0
12.09.2019 05:00:00 12,5 8,6 7,7 20,4 21,2 2 1 7 4 SE 1029,4 50 0,0
12.09.2019 04:00:00 12,1 8,2 7,9 20,7 21,2 5 3 12 6 E 1029,4 50 0,0
12.09.2019 03:00:00 13,2 8,5 10,6 20,9 21,2 9 5 13 7 ENE 1028,9 50 0,0
12.09.2019 02:00:00 14,0 8,0 11,2 21,2 21,2 7 4 11 6 E 1028,7 40 0,0
12.09.2019 01:00:00 14,1 8,1 10,0 21,5 21,2 9 5 10 6 SE 1028,4 40 0,0
12.09.2019 00:00:00 14,8 8,1 10,8 21,8 21,2 5 3 19 11 O 1028,4 40 0,0
11.09.2019 23:00:00 15,6 7,9 11,0 22,1 21,2 8 4 16 9 ONO 1028,0 40 0,0
11.09.2019 22:00:00 16,1 7,3 10,6 22,4 21,2 3 1 8 5 N 1027,5 40 0,0
11.09.2019 21:00:00 17,6 7,0 13,0 22,5 21,2 8 4 13 7 N 1027,0 40 0,0
11.09.2019 20:00:00 19,4 7,2 17,6 22,6 21,2 11 6 29 15 NNE 1026,0 40 0,0
11.09.2019 19:00:00 21,4 6,5 24,3 22,5 21,2 18 10 30 16 N 1025,6 40 0,0
11.09.2019 18:00:00 22,1 6,3 25,9 22,2 21,2 18 10 33 18 N 1025,4 40 0,0
11.09.2019 17:00:00 22,2 7,2 26,9 21,7 21,3 20 11 34 18 N 1025,0 40 0,0
11.09.2019 16:00:00 21,8 7,2 27,2 21,2 21,2 18 10 29 16 N 1024,8 40 0,0
11.09.2019 15:00:00 22,4 7,4 26,4 20,6 21,2 18 10 32 17 NNO 1024,8 40 0,0
11.09.2019 14:00:00 20,9 8,8 25,1 20,1 21,2 18 10 30 16 N 1025,2 40 0,0
11.09.2019 13:00:00 20,3 8,9 25,6 19,7 21,2 20 11 34 18 N 1024,9 40 0,0
11.09.2019 12:00:00 20,0 9,0 22,8 19,4 21,3 16 9 31 17 N 1025,1 40 0,0
11.09.2019 11:00:00 17,1 8,2 22,5 19,2 21,2 12 6 24 13 NO 1025,0 40 0,0
11.09.2019 10:00:00 14,7 7,5 19,7 19,2 21,2 6 3 16 9 NO 1024,6 40 0,0
11.09.2019 09:00:00 13,1 6,7 13,5 19,4 21,3 6 4 13 7 N 1024,6 40 0,0
11.09.2019 08:00:00 11,6 7,3 7,8 19,6 21,3 9 5 19 11 NNO 1023,7 40 0,0
11.09.2019 07:00:00 10,8 7,1 6,4 19,9 21,3 6 3 15 8 NNO 1022,8 40 0,0
11.09.2019 06:00:00 11,6 7,3 7,1 20,1 21,3 4 2 9 5 N 1022,1 40 0,0
11.09.2019 05:00:00 12,4 7,5 8,1 20,4 21,3 6 4 16 9 NNO 1021,1 40 0,0
11.09.2019 04:00:00 13,2 7,8 11,4 20,6 21,3 3 2 20 11 OSO 1020,9 40 0,0
11.09.2019 03:00:00 13,9 7,9 12,5 20,8 21,3 16 9 26 14 NNO 1020,6 50 0,0
11.09.2019 02:00:00 14,8 8,1 10,4 21,0 21,3 12 6 21 11 NNO 1019,6 50 0,0
11.09.2019 01:00:00 16,0 8,5 14,3 21,2 21,3 8 4 17 9 N 1018,7 50 0,0
11.09.2019 00:00:00 17,3 8,7 16,5 21,4 21,3 9 5 20 11 NNO 1018,4 50 0,0
10.09.2019 23:00:00 18,1 8,9 17,2 21,5 21,3 10 5 20 11 N 1018,5 50 0,0
10.09.2019 22:00:00 17,9 9,5 17,2 21,7 21,3 10 5 19 10 NO 1018,1 40 0,0
10.09.2019 21:00:00 18,2 9,3 17,3 21,8 21,4 11 6 20 11 NO 1017,4 40 0,0
10.09.2019 20:00:00 18,9 9,1 18,6 21,8 21,4 10 5 22 12 NNO 1016,6 50 0,0
10.09.2019 19:00:00 19,6 8,9 20,1 21,7 21,4 16 9 23 12 N 1015,8 50 0,0
10.09.2019 18:00:00 20,2 8,2 21,6 21,5 21,4 11 6 21 11 N 1015,7 50 0,0
10.09.2019 17:00:00 20,5 8,5 24,7 21,2 21,4 12 7 23 12 NNO 1015,1 50 0,0
10.09.2019 16:00:00 20,1 7,8 24,2 20,8 21,4 12 6 24 13 N 1015,1 50 0,0
10.09.2019 15:00:00 19,7 8,4 25,0 20,4 21,4 9 5 22 12 NNO 1015,2 50 0,0
10.09.2019 14:00:00 19,1 7,8 24,1 19,9 21,4 8 4 19 10 NO 1015,3 50 0,0
10.09.2019 13:00:00 18,1 7,5 23,2 19,6 21,4 5 3 16 9 NO 1015,5 50 0,0
10.09.2019 12:00:00 17,2 8,3 20,5 19,3 21,4 5 3 13 7 NO 1015,5 50 0,0
10.09.2019 11:00:00 14,8 8,7 16,4 19,2 21,4 5 3 14 7 N 1015,6 44 0,0
10.09.2019 10:00:00 13,1 9,5 13,5 19,3 21,4 6 3 11 6 NNO 1015,6 50 0,0
10.09.2019 09:00:00 11,2 8,9 11,0 19,4 21,4 3 2 10 5 N 1014,5 50 0,0
10.09.2019 08:00:00 10,7 8,6 8,0 19,6 21,4 4 2 9 5 N 1013,8 42 0,0
10.09.2019 07:00:00 10,7 8,6 7,9 19,8 21,5 2 1 7 4 NNE 1013,2 50 0,0
10.09.2019 06:00:00 11,1 8,1 9,5 20,0 21,4 3 2 7 4 N 1012,9 60 0,0
10.09.2019 05:00:00 12,0 7,9 10,0 20,2 21,5 4 2 10 6 SE 1012,8 60 0,0
10.09.2019 04:00:00 12,4 7,9 11,7 20,3 21,5 6 3 11 6 SE 1013,1 60 0,0
10.09.2019 03:00:00 13,3 7,7 11,1 20,5 21,5 10 5 13 7 ESE 1013,5 60 0,0
10.09.2019 02:00:00 13,3 8,1 11,6 20,7 21,5 3 2 18 10 NNO 1013,9 60 0,0
10.09.2019 01:00:00 14,4 7,7 13,0 20,9 21,5 5 3 19 10 ESE 1014,3 60 0,0
10.09.2019 00:00:00 14,6 7,2 14,1 21,1 21,5 11 6 16 8 E 1014,3 60 0,0
09.09.2019 23:00:00 14,9 6,2 13,6 21,3 21,5 8 4 9 5 ESE 1014,5 60 0,0
09.09.2019 22:00:00 15,3 6,8 13,3 21,4 21,6 4 2 8 4 SE 1014,4 60 0,0
09.09.2019 21:00:00 16,1 6,2 14,9 21,6 21,5 6 4 13 7 E 1014,0 60 0,0

tt = Temperatura
td = dewpoint
tt 5cm = Temperatura 5cm
tt -20cm = Temperatura -20cm
tt -100cm = Temperatura -100cm
ff = velocità del vento
fx = gusts
dd = direzione del vento
ppp = reduced air pressure
vv = visibility
rr = precipitazioni

Stazioni seguenti

WeatherPro
AMSI
MeteoEarth